Patuxent River Naval Air Station,Trapnell Field Aiport Patuxent River US
ICAO: KNHK
IATA: NHK
Category: Medium
Scheduled Services: No

Elevation: 39 ft
TransAlt. 18000 ft.

Airport Communications:
APP/DEP:120.05
ATIS:27.62
CLNC DEL:135.2
GND:120.6
BASE OPS:30.255
PMSV METRO:35.62
LEESBURG RDO:117.6
TWR:123.7

KNHK Zoom In..

If you have problems with the map follow the link
https://www.worldairports.se/pages/airport.php?
ICAO=KNHK

Runways:

(A) RW 02 length 5021 ft width 75 ft
---- / hdg 18

(B) RW 06 length 11807 ft width 200 ft
---- / hdg 59

(C) RW 14 length 9742 ft width 200 ft
---- / hdg 136

(D) RW 20 length 5021 ft width 75 ft
---- / hdg 198

(E) RW 24 length 11807 ft width 200 ft
---- / hdg 239

(F) RW 32 length 9742 ft width 200 ft
---- / hdg 316

Location; KNHK
Day. 20 / Time. 21.23 Zulu
* Altimeter: 30.29
* Temperature: 02° c. 35.6°f.
* Wind from: 070° Speed 07 kn.
Dewpoint: 02° c.
Visibility: 3 Statute Miles.
Clouds: Overcast 500 ft.
Conditions: Light Rain.Conditions: Mist.

KNHK 202123Z 07007KT 3SM -RA BR OVC005 02/02 A3029 RMK AO2 P0005 T00220022


Wind From 070°
Speed 07 kn.

 
 
jpsmedia.com for Web Design worldairports.se 2019   terms of use